This demonstration page uses our WeatherBlox Daily Observations layout. Learn more.

Left ArrowRight Arrow

34.74481, -87.66753

Hourly Observations for December 3, 2018

Temp ( °F °C ) Dew Point ( °F °C ) Humidity (%) Winds ( mph kmh ) Pressure ( in mb ) Visibility ( mi km ) Precip ( " mm )
12:53 am 00:53 undefined N/A N/A N/A undefined N/A N/A N/A 0.00 0.00
1:53 am 01:53 undefined N/A N/A N/A undefined N/A N/A N/A 0.00 0.00
2:53 am 02:53 Clear 49 9.4 35 1.7 59 59 NNW 9 15 29.95 1014 10 16 0.00 0.00
3:53 am 03:53 Mostly Clear 47 8.3 34 1.1 61 61 NNW 6 9 29.96 1014 10 16 0.00 0.00
5:53 am 05:53 Clear 44 6.7 34 1.1 68 68 NW 5 7 29.99 1016 10 16 0.00 0.00
6:53 am 06:53 Sunny 42 5.6 33 0.6 71 71 NW 6 9 30.02 1017 10 16 0.00 0.00
7:53 am 07:53 Sunny 45 7.2 33 0.6 63 63 N 6 9 30.03 1017 10 16 0.00 0.00
8:53 am 08:53 Sunny 46 7.8 33 0.6 61 61 NNW 9 15 30.06 1018 10 16 0.00 0.00
9:53 am 09:53 Sunny 47 8.3 33 0.6 59 59 NNW 7 11 30.07 1018 10 16 0.00 0.00
10:53 am 10:53 Sunny 49 9.4 33 0.6 55 55 NNW 7 11 30.06 1018 10 16 0.00 0.00
11:53 am 11:53 Sunny 51 10.6 35 1.7 54 54 NW 6 9 30.04 1017 10 16 0.00 0.00
12:53 pm 12:53 Sunny 52 11.1 34 1.1 50 50 NNW 9 15 30.03 1017 10 16 0.00 0.00
1:53 pm 13:53 Sunny 53 11.7 34 1.1 48 48 NW 9 15 30.03 1017 10 16 0.00 0.00
2:53 pm 14:53 Sunny 53 11.7 33 0.6 47 47 NNW 8 13 30.05 1018 10 16 0.00 0.00
3:53 pm 15:53 Mostly Sunny 50 10 34 1.1 54 54 WNW 8 13 30.07 1018 10 16 0.00 0.00
4:53 pm 16:53 Partly Cloudy 48 8.9 33 0.6 56 56 NNW 9 15 30.10 1019 10 16 0.00 0.00
5:53 pm 17:53 Mostly Clear 46 7.8 32 0 58 58 NNW 10 17 30.13 1020 10 16 0.00 0.00
6:53 pm 18:53 Cloudy 46 7.8 33 0.6 61 61 NNW 10 17 30.15 1021 10 16 0.00 0.00
7:53 pm 19:53 Cloudy 45 7.2 33 0.6 63 63 NNW 7 11 30.16 1021 10 16 0.00 0.00
8:53 pm 20:53 Cloudy 45 7.2 31 -0.6 58 58 N 12 19 30.17 1022 10 16 0.00 0.00
9:53 pm 21:53 Cloudy 44 6.7 31 -0.6 60 60 NNW 7 11 30.18 1022 10 16 0.00 0.00
10:53 pm 22:53 Cloudy 44 6.7 32 0 63 63 NNW 8 13 30.18 1022 10 16 0.00 0.00
11:53 pm 23:53 Cloudy 43 6.1 31 -0.6 63 63 NW 7 11 30.18 1022 10 16 0.00 0.00

Powered by AerisWeather